sat.trackr.live / text

‹ back to catalog

UNKNOWN

NORAD 87334

UNKNOWN UNKNOWN UNKNOWN

§ Identity

Operator
Country
Launch date
Launch site
Launch vehicle
Mass (kg)
RCS (m²)

External: N2YO · Heavens-Above

§ Orbital elements

Epoch: 2026-09-17T23:24:38.576736Z

Period
101.67 min
Inclination
90.0064°
Eccentricity
0.0067136
Mean motion
14.16283708 rev/d
Perigee alt
789.5 km
Apogee alt
886.4 km
Semi-major
7,216.1 km
B*
6.7914e-3
RAAN
271.7203°
Arg perigee
72.2793°
Mean anomaly
288.5708°
Rev number
42,605

§ Raw data

UNKNOWN1 87334U          26260.97544649  .00013787  00000+0  67914-2 0  99932 87334  90.0064 271.7203 0067136  72.2793 288.5708 14.16283708426056

JSON: /api/v1/satellites/87334 · /tle

For live sub-satellite position, see the globe view (requires WebGL).

§ Visibility from observer

Set your observer location to see the next 7 days of passes ≥ 10°. The values pass through the URL so the page stays shareable.

No JS? Fill the form by hand. The geolocation button needs JavaScript.